TimeCDT,TemperatureF,Dew PointF,Humidity,Sea Level PressureIn,VisibilityMPH,Wind Direction,Wind SpeedMPH,Gust SpeedMPH,PrecipitationIn,Events,Conditions,WindDirDegrees,DateUTC
12:53 AM,66.9,57.9,73,30.08,10.0,Calm,Calm,-,0.02,Rain,Light Rain,0,2013-07-30 05:53:00
1:53 AM,66.0,61.0,84,30.06,10.0,Calm,Calm,-,0.00,,Overcast,0,2013-07-30 06:53:00
2:53 AM,66.9,59.0,76,30.06,10.0,Calm,Calm,-,N/A,,Overcast,0,2013-07-30 07:53:00
3:53 AM,66.0,61.0,84,30.07,10.0,NE,4.6,-,N/A,,Overcast,50,2013-07-30 08:53:00
4:53 AM,66.0,61.0,84,30.07,10.0,Calm,Calm,-,N/A,,Overcast,0,2013-07-30 09:53:00
5:53 AM,64.0,57.9,80,30.08,7.0,SSW,5.8,-,0.01,Rain,Light Rain,210,2013-07-30 10:53:00
6:53 AM,64.9,59.0,81,30.09,9.0,Calm,Calm,-,0.00,,Overcast,0,2013-07-30 11:53:00
7:39 AM,64.4,60.8,88,30.10,10.0,Calm,Calm,-,0.00,Rain,Light Rain,0,2013-07-30 12:39:00
7:53 AM,64.9,60.1,84,30.09,6.0,Calm,Calm,-,0.00,Rain,Light Rain,0,2013-07-30 12:53:00
8:02 AM,64.4,60.8,88,30.10,6.0,NE,3.5,-,0.01,Rain,Light Rain,50,2013-07-30 13:02:00
8:30 AM,64.4,60.8,88,30.10,10.0,East,3.5,-,0.01,,Overcast,90,2013-07-30 13:30:00
8:53 AM,64.9,60.1,84,30.10,10.0,ESE,4.6,-,0.01,,Overcast,110,2013-07-30 13:53:00
9:09 AM,64.4,60.8,88,30.10,10.0,ESE,4.6,-,0.00,Rain,Light Rain,120,2013-07-30 14:09:00
9:18 AM,64.4,60.8,88,30.10,10.0,SE,4.6,-,0.00,,Overcast,130,2013-07-30 14:18:00
9:41 AM,66.2,60.8,83,30.09,10.0,SE,8.1,-,0.00,,Overcast,140,2013-07-30 14:41:00
9:53 AM,66.0,60.1,81,30.09,10.0,SE,6.9,-,0.00,,Overcast,130,2013-07-30 14:53:00
10:13 AM,66.2,60.8,83,30.09,10.0,SSE,4.6,-,N/A,,Overcast,150,2013-07-30 15:13:00
10:43 AM,66.2,60.8,83,30.09,10.0,SSE,5.8,-,0.00,,Overcast,150,2013-07-30 15:43:00
10:53 AM,66.9,61.0,81,30.08,10.0,South,4.6,-,0.00,,Overcast,170,2013-07-30 15:53:00
11:53 AM,69.1,61.0,75,30.08,10.0,South,5.8,-,N/A,,Overcast,180,2013-07-30 16:53:00
12:53 PM,70.0,62.1,76,30.08,10.0,South,6.9,-,N/A,,Overcast,180,2013-07-30 17:53:00
1:53 PM,69.1,63.0,81,30.07,10.0,South,5.8,-,N/A,,Overcast,190,2013-07-30 18:53:00
2:53 PM,71.1,63.0,75,30.06,10.0,Calm,Calm,-,N/A,,Overcast,0,2013-07-30 19:53:00
3:03 PM,71.6,62.6,73,30.07,10.0,Calm,Calm,-,N/A,,Overcast,0,2013-07-30 20:03:00
3:53 PM,71.1,63.0,75,30.06,10.0,Calm,Calm,-,N/A,,Overcast,0,2013-07-30 20:53:00
4:53 PM,71.1,63.0,75,30.06,10.0,NNW,3.5,-,N/A,,Overcast,340,2013-07-30 21:53:00
5:53 PM,71.1,63.0,75,30.07,10.0,West,3.5,-,N/A,,Overcast,270,2013-07-30 22:53:00
6:53 PM,71.1,63.0,75,30.06,10.0,Calm,Calm,-,N/A,,Overcast,0,2013-07-30 23:53:00
7:53 PM,70.0,64.0,81,30.07,10.0,Calm,Calm,-,N/A,,Overcast,0,2013-07-31 00:53:00
8:36 PM,69.8,64.4,83,30.07,10.0,Calm,Calm,-,N/A,,Overcast,0,2013-07-31 01:36:00
8:46 PM,69.8,64.4,83,30.07,9.0,Calm,Calm,-,N/A,,Overcast,0,2013-07-31 01:46:00
8:53 PM,70.0,63.0,78,30.06,9.0,Calm,Calm,-,N/A,,Mostly Cloudy,0,2013-07-31 01:53:00
9:53 PM,68.0,63.0,84,30.05,10.0,SE,6.9,-,N/A,,Scattered Clouds,130,2013-07-31 02:53:00
10:53 PM,66.9,63.0,87,30.07,10.0,North,3.5,-,N/A,,Mostly Cloudy,350,2013-07-31 03:53:00
11:53 PM,64.9,62.1,90,30.05,10.0,Calm,Calm,-,N/A,,Clear,0,2013-07-31 04:53:00